{"data":{"norad_id":63716,"intl_designator":"2025-087V","name":"STARLINK-33749","alt_names":[],"object_type":"PAYLOAD","status":"ACTIVE","operator":null,"country":"US","launch_date":"2025-04-28","launch_site_code":"AFWTR","launch_vehicle":null,"mission":null,"orbit_class":"UNKNOWN","rcs_meters":null,"size_class":null,"mass_kg":null,"dimensions":null,"purposes":["comms"],"wikipedia_slug":null,"has_3d_model":false,"image_url":null,"decayed_at":null,"tle_current":{"epoch":"2026-05-24T17:46:41.313216Z","epoch_age_seconds":91374,"freshness":"FRESH","line1":"1 63716U 25087V   26144.74075594  .00018766  00000+0  61464-3 0  9994","line2":"2 63716  53.1607 226.2865 0000458  67.9035 292.2015 15.31717438 60844","mean_motion":15.31717438,"eccentricity":4.58e-5,"inclination_deg":53.1607,"raan_deg":226.2865,"arg_perigee_deg":67.9035,"mean_anomaly_deg":292.2015,"bstar":0.00061464,"rev_number":6084,"period_min":94.012117657957,"perigee_km":470.37433776257,"apogee_km":471.00169013385,"semimajor_km":6848.8250139482,"source":"CELESTRAK","updated_at":"2026-05-25T13:38:20.100731Z"}}}